KOREASAT 5A

Last updated on Sun Jul 06 2025 00:02:46 GMT+0000 (Coordinated Universal Time)

1 42984U 17067A 25186.01613038 -.00000343 00000+0 00000+0 0 9991 2 42984 0.0197 311.4984 0001102 137.8424 312.8558 1.00269756 28041
UTC large
Height (km)
Speed (km/s)
/
Latitude / Longitude
Inclination (degrees)
Orbital Period (minutes)
Azimuth
Elevation
Range (km)
Doppler Factor

Next 0 passes for location: London (51.5072 / 0.1276)

Sorry there are no passes over London.